Location: Pettit
(39.0209°N, 79.7181°W)
Time: 05:36:07
(UTC+00:00)

ISS - Pass Details

Date: 27 April 2026
Orbit: 414 x 424 km, 51.6° (Epoch: 15 May)

Event Time Altitude Azimuth Distance (km) Brightness Sun altitude
Exits shadow 07:25:48 16° 21° (NNE) 1,169 -0.8 -29.1°
Drops below altitude 10° 07:26:48 10° 33° (NNE) 1,499 0.0 -29.0°
Sets 07:29:07 0° 45° (NE) 2,368 1.3 -28.7°
